Flag for Japan Weather past 2 weeks in Sendai, Japan

Now
72 °F

Passing clouds.


Feels Like: 72 °F
Forecast: 63 / 74 °F
Wind: 7 mph from East

Location: Sendai Airport

Current Time: Sep 3, 2014 at 3:15:37 AM

Latest Report: Sep 2, 2014 at 9:00 PM


Visibility: N/A

Pressure: 30.01 "Hg

Humidity: 78%

Dew point: 64 °F

Location of SendaiLocation

Historic Weather in Sendai — Graph

°F

Sendai temperature yesterday

Maximum temperature yesterday: 77 °F (at 9:00 AM)
Minimum temperature yesterday: 68 °F (at 6:00 AM)
Average temperature yesterday: 74 °F

Past Weeks' High & Low Weather Summary

 TemperatureHumidityPressure
High88 °F (Aug 20, 3:00 PM)100% (Aug 19, 6:00 AM)30.04 "Hg (Aug 19, 6:00 AM)
Low64 °F (Aug 27, 6:00 AM)66% (Aug 20, 3:00 PM)29.77 "Hg (Aug 25, 2:00 PM)
Average75 °F85%29.92 "Hg
* Reported Aug 18 9:00 PM — Sep 2 9:00 PM, Sendai, Weather by CustomWeather, © 2014

Note: Actual official high and low records may vary slightly from our data, if they occured in-between our weather recording intervals... More about our weather records

Advertising

Sendai weather history for previous 24 hours

 ConditionsComfort  
Time TempWeatherWind HumidityBarometerVisibility
9:00 PM
Sep 2
72 °FPassing clouds.7 mph78%30.01 "HgN/A
8:00 PM72 °FPassing clouds.8 mph83%30.01 "HgN/A
7:00 PM72 °FPartly cloudy.12 mph83%29.98 "HgN/A
6:00 PM72 °FSprinkles. Broken clouds.10 mph88%29.98 "HgN/A
5:00 PM73 °FPartly sunny.9 mph83%29.95 "HgN/A
4:00 PM75 °FBroken clouds.3 mph74%29.95 "HgN/A
3:00 PM75 °FBroken clouds.6 mph74%29.95 "HgN/A
2:00 PM77 °FBroken clouds.9 mph74%29.95 "HgN/A
1:00 PM77 °FBroken clouds.9 mph74%29.95 "HgN/A
12:00 PM75 °FBroken clouds.10 mph78%29.95 "HgN/A
11:00 AM77 °FBroken clouds.14 mph74%29.95 "HgN/A
10:00 AM77 °FBroken clouds.9 mph69%29.95 "HgN/A
9:00 AM77 °FBroken clouds.8 mph79%29.95 "HgN/A
8:00 AM72 °FBroken clouds.8 mph88%29.95 "HgN/A
7:00 AM70 °FBroken clouds.3 mph94%29.95 "HgN/A
6:00 AM68 °FLight rain. Partly sunny.5 mph94%29.95 "HgN/A
Weather by CustomWeather, © 2014

See weather overviewHow to use our weather pages